Flight Briefing for CPX244

Departure Arrival
Norman Manley International Airport (MKJP)
Click to view FAA NOTAMS
Miami International Airport (KMIA)
Click to view FAA NOTAMS
Departure Time Arrival Time
N/A N/A
Aircraft Distance
B767-300BDSF 518nm
Departure METAR Arrival METAR
MKJP 212200Z 16017KT 9999 FEW022 29/22 Q1011 KMIA 212253Z 12012KT 10SM FEW040 FEW060 FEW250 29/20 A2993 RMK AO2 SLP136 T02890200
Suggested Route
UCA UA301 URSUS FLIPR6


View recent IFR Routes data
Notes



Charts and Procedures

Charts for MKJP
No chart available
Charts for KMIA
No chart available

Windy.com Weather Map